sat.trackr.live / text

‹ back to catalog

STARLINK-35155

NORAD 65935 · 2025-225AB

PAYLOAD ACTIVE UNKNOWN

§ Identity

Operator
Country
US
Launch date
2025-10-08
Launch site
AFWTR
Launch vehicle
Mass (kg)
RCS (m²)

Purposes: comms

External: N2YO · Heavens-Above · Gunter

§ Orbital elements

Epoch: 2026-05-25T02:13:52.371264Z

Period
94.10 min
Inclination
53.1564°
Eccentricity
0.0000935
Mean motion
15.30213008 rev/d
Perigee alt
474.5 km
Apogee alt
475.8 km
Semi-major
6,853.3 km
B*
7.6072e-4
RAAN
170.9435°
Arg perigee
65.0747°
Mean anomaly
295.0350°
Rev number
3,521

§ Raw data

STARLINK-351551 65935U 25225AB  26145.09296726  .00022248  00000+0  76072-3 0  99952 65935  53.1564 170.9435 0000935  65.0747 295.0350 15.30213008 35217

JSON: /api/v1/satellites/65935 · /tle

For live sub-satellite position, see the globe view (requires WebGL).

§ Visibility from observer

Set your observer location to see the next 7 days of passes ≥ 10°. The values pass through the URL so the page stays shareable.

No JS? Fill the form by hand. The geolocation button needs JavaScript.